Time,TemperatureF,DewpointF,PressureIn,WindDirection,WindDirectionDegrees,WindSpeedMPH,WindSpeedGustMPH,Humidity,HourlyPrecipIn,Conditions,Clouds,dailyrainin,SoftwareType,DateUTC
2013-06-15 00:02:00,74.3,67.4,29.94,NNE,17,0.0,0.0,79,0.00,,,0.00,Wunderground v.1.15,2013-06-15 05:02:00,
2013-06-15 00:07:00,74.1,67.5,29.93,NNE,17,0.0,0.0,80,0.00,,,0.00,Wunderground v.1.15,2013-06-15 05:07:00,
2013-06-15 00:12:00,73.8,68.0,29.94,NNE,17,0.0,0.0,82,0.00,,,0.00,Wunderground v.1.15,2013-06-15 05:12:00,
2013-06-15 00:17:00,73.6,68.1,29.94,North,360,0.0,0.0,83,0.00,,,0.00,Wunderground v.1.15,2013-06-15 05:17:00,
2013-06-15 00:22:00,73.4,67.6,29.94,North,360,0.0,0.0,82,0.00,,,0.00,Wunderground v.1.15,2013-06-15 05:22:00,
2013-06-15 00:32:00,73.0,67.2,29.93,North,360,0.0,0.0,82,0.00,,,0.00,Wunderground v.1.15,2013-06-15 05:32:00,
2013-06-15 00:37:00,72.9,67.4,29.93,North,360,0.0,0.0,83,0.00,,,0.00,Wunderground v.1.15,2013-06-15 05:37:00,
2013-06-15 00:42:00,72.7,67.2,29.93,North,360,0.0,0.0,83,0.00,,,0.00,Wunderground v.1.15,2013-06-15 05:42:00,
2013-06-15 00:47:00,72.6,67.5,29.93,North,360,0.0,0.0,84,0.00,,,0.00,Wunderground v.1.15,2013-06-15 05:47:00,
2013-06-15 00:57:00,72.2,67.8,29.93,North,360,0.0,0.0,86,0.00,,,0.00,Wunderground v.1.15,2013-06-15 05:57:00,
2013-06-15 01:03:00,71.9,67.8,29.93,North,360,0.0,0.0,87,0.00,,,0.00,Wunderground v.1.15,2013-06-15 06:03:00,
2013-06-15 01:12:00,71.3,67.6,29.94,North,360,0.0,0.0,88,0.00,,,0.00,Wunderground v.1.15,2013-06-15 06:12:00,
2013-06-15 01:17:00,71.0,67.3,29.94,North,360,0.0,0.0,88,0.00,,,0.00,Wunderground v.1.15,2013-06-15 06:17:00,
2013-06-15 01:22:00,70.4,67.3,29.94,North,360,0.0,0.0,90,0.00,,,0.00,Wunderground v.1.15,2013-06-15 06:22:00,
2013-06-15 01:28:00,70.0,66.9,29.94,North,360,0.0,0.0,90,0.00,,,0.00,Wunderground v.1.15,2013-06-15 06:28:00,
2013-06-15 01:38:00,69.7,67.0,29.95,North,360,0.0,0.0,91,0.00,,,0.00,Wunderground v.1.15,2013-06-15 06:38:00,
2013-06-15 01:43:00,69.4,66.7,29.94,North,360,0.0,0.0,91,0.00,,,0.00,Wunderground v.1.15,2013-06-15 06:43:00,
2013-06-15 01:48:00,69.3,66.6,29.94,North,360,0.0,0.0,91,0.00,,,0.00,Wunderground v.1.15,2013-06-15 06:48:00,
2013-06-15 01:53:00,69.2,66.5,29.94,North,360,0.0,0.0,91,0.00,,,0.00,Wunderground v.1.15,2013-06-15 06:53:00,
2013-06-15 01:58:00,69.1,66.7,29.94,North,360,0.0,0.0,92,0.00,,,0.00,Wunderground v.1.15,2013-06-15 06:58:00,
2013-06-15 02:07:00,69.0,66.6,29.94,North,360,0.0,0.0,92,0.00,,,0.00,Wunderground v.1.15,2013-06-15 07:07:00,
2013-06-15 02:12:00,68.9,66.8,29.94,North,360,0.0,0.0,93,0.00,,,0.00,Wunderground v.1.15,2013-06-15 07:12:00,
2013-06-15 02:17:00,68.8,66.7,29.94,North,360,0.0,0.0,93,0.00,,,0.00,Wunderground v.1.15,2013-06-15 07:17:00,
2013-06-15 02:22:00,68.7,66.3,29.93,North,360,0.0,0.0,92,0.00,,,0.00,Wunderground v.1.15,2013-06-15 07:22:00,
2013-06-15 02:28:00,68.5,66.4,29.93,North,360,0.0,0.0,93,0.00,,,0.00,Wunderground v.1.15,2013-06-15 07:28:00,
2013-06-15 02:33:00,68.5,66.4,29.93,North,360,0.0,0.0,93,0.00,,,0.00,Wunderground v.1.15,2013-06-15 07:33:00,
2013-06-15 02:43:00,68.1,66.3,29.93,North,360,0.0,0.0,94,0.00,,,0.00,Wunderground v.1.15,2013-06-15 07:43:00,
2013-06-15 02:48:00,68.0,66.2,29.93,North,360,0.0,0.0,94,0.00,,,0.00,Wunderground v.1.15,2013-06-15 07:48:00,
2013-06-15 02:53:00,68.0,65.9,29.93,North,360,0.0,0.0,93,0.00,,,0.00,Wunderground v.1.15,2013-06-15 07:53:00,
2013-06-15 02:58:00,68.0,65.9,29.93,North,360,0.0,0.0,93,0.00,,,0.00,Wunderground v.1.15,2013-06-15 07:58:00,
2013-06-15 03:03:00,67.9,65.8,29.92,North,360,0.0,0.0,93,0.00,,,0.00,Wunderground v.1.15,2013-06-15 08:03:00,
2013-06-15 03:08:00,67.9,65.8,29.92,North,360,0.0,0.0,93,0.00,,,0.00,Wunderground v.1.15,2013-06-15 08:08:00,
2013-06-15 03:13:00,68.0,65.9,29.92,North,360,0.0,0.0,93,0.00,,,0.00,Wunderground v.1.15,2013-06-15 08:13:00,
2013-06-15 03:18:00,68.0,65.9,29.92,North,360,0.0,0.0,93,0.00,,,0.00,Wunderground v.1.15,2013-06-15 08:18:00,
2013-06-15 03:23:00,68.1,66.0,29.92,North,360,0.0,0.0,93,0.00,,,0.00,Wunderground v.1.15,2013-06-15 08:23:00,
2013-06-15 03:28:00,68.0,65.9,29.92,North,360,0.0,0.0,93,0.00,,,0.00,Wunderground v.1.15,2013-06-15 08:28:00,
2013-06-15 03:33:00,68.0,65.9,29.92,North,360,0.0,0.0,93,0.00,,,0.00,Wunderground v.1.15,2013-06-15 08:33:00,
2013-06-15 03:38:00,67.9,65.8,29.92,North,360,0.0,0.0,93,0.00,,,0.00,Wunderground v.1.15,2013-06-15 08:38:00,
2013-06-15 03:47:00,67.8,65.7,29.92,North,360,0.0,0.0,93,0.00,,,0.00,Wunderground v.1.15,2013-06-15 08:47:00,
2013-06-15 03:52:00,67.8,65.7,29.92,North,360,0.0,0.0,93,0.00,,,0.00,Wunderground v.1.15,2013-06-15 08:52:00,
2013-06-15 03:57:00,67.9,65.8,29.92,North,360,0.0,0.0,93,0.00,,,0.00,Wunderground v.1.15,2013-06-15 08:57:00,
2013-06-15 04:02:00,67.9,65.8,29.92,North,360,0.0,0.0,93,0.00,,,0.00,Wunderground v.1.15,2013-06-15 09:02:00,
2013-06-15 04:08:00,67.9,66.1,29.92,North,360,0.0,0.0,94,0.00,,,0.00,Wunderground v.1.15,2013-06-15 09:08:00,
2013-06-15 04:18:00,67.8,66.0,29.93,North,360,0.0,0.0,94,0.00,,,0.00,Wunderground v.1.15,2013-06-15 09:18:00,
2013-06-15 04:23:00,67.8,66.0,29.93,North,360,0.0,0.0,94,0.00,,,0.00,Wunderground v.1.15,2013-06-15 09:23:00,
2013-06-15 04:28:00,67.6,65.8,29.93,North,360,0.0,0.0,94,0.00,,,0.00,Wunderground v.1.15,2013-06-15 09:28:00,
2013-06-15 04:33:00,67.6,65.8,29.93,North,360,0.0,0.0,94,0.00,,,0.00,Wunderground v.1.15,2013-06-15 09:33:00,
2013-06-15 04:38:00,67.5,65.7,29.93,North,360,0.0,0.0,94,0.00,,,0.00,Wunderground v.1.15,2013-06-15 09:38:00,
2013-06-15 04:43:00,67.5,65.7,29.93,North,360,0.0,0.0,94,0.00,,,0.00,Wunderground v.1.15,2013-06-15 09:43:00,
2013-06-15 04:52:00,67.4,65.6,29.93,North,360,0.0,0.0,94,0.00,,,0.00,Wunderground v.1.15,2013-06-15 09:52:00,
2013-06-15 04:57:00,67.3,65.5,29.93,North,360,0.0,0.0,94,0.00,,,0.00,Wunderground v.1.15,2013-06-15 09:57:00,
2013-06-15 05:02:00,67.3,65.5,29.94,North,360,0.0,0.0,94,0.00,,,0.00,Wunderground v.1.15,2013-06-15 10:02:00,
2013-06-15 05:12:00,67.4,65.9,29.93,North,360,0.0,0.0,95,0.00,,,0.00,Wunderground v.1.15,2013-06-15 10:12:00,
2013-06-15 05:17:00,67.3,65.5,29.93,North,360,0.0,0.0,94,0.00,,,0.00,Wunderground v.1.15,2013-06-15 10:17:00,
2013-06-15 05:22:00,67.3,65.5,29.94,North,360,0.0,0.0,94,0.00,,,0.00,Wunderground v.1.15,2013-06-15 10:22:00,
2013-06-15 05:27:00,67.6,65.8,29.94,North,360,0.0,0.0,94,0.00,,,0.00,Wunderground v.1.15,2013-06-15 10:27:00,
2013-06-15 05:32:00,67.6,65.8,29.94,North,360,0.0,0.0,94,0.00,,,0.00,Wunderground v.1.15,2013-06-15 10:32:00,
2013-06-15 05:37:00,67.6,65.5,29.94,North,360,0.0,0.0,93,0.00,,,0.00,Wunderground v.1.15,2013-06-15 10:37:00,
2013-06-15 05:42:00,67.8,65.7,29.94,North,360,0.0,0.0,93,0.00,,,0.00,Wunderground v.1.15,2013-06-15 10:42:00,
2013-06-15 05:47:00,67.9,65.8,29.94,North,360,0.0,0.0,93,0.00,,,0.00,Wunderground v.1.15,2013-06-15 10:47:00,
2013-06-15 05:57:00,67.8,65.4,29.94,North,360,0.0,0.0,92,0.00,,,0.00,Wunderground v.1.15,2013-06-15 10:57:00,
2013-06-15 06:02:00,67.7,65.3,29.95,North,360,0.0,0.0,92,0.00,,,0.00,Wunderground v.1.15,2013-06-15 11:02:00,
2013-06-15 06:08:00,67.6,65.5,29.95,North,360,0.0,0.0,93,0.00,,,0.00,Wunderground v.1.15,2013-06-15 11:08:00,
2013-06-15 06:13:00,67.4,65.3,29.95,North,360,0.0,0.0,93,0.00,,,0.00,Wunderground v.1.15,2013-06-15 11:13:00,
2013-06-15 06:22:00,67.5,65.4,29.95,North,360,0.0,0.0,93,0.00,,,0.00,Wunderground v.1.15,2013-06-15 11:22:00,
2013-06-15 06:27:00,67.7,65.3,29.96,North,360,0.0,0.0,92,0.00,,,0.00,Wunderground v.1.15,2013-06-15 11:27:00,
2013-06-15 06:32:00,67.9,65.8,29.96,North,360,0.0,0.0,93,0.00,,,0.00,Wunderground v.1.15,2013-06-15 11:32:00,
2013-06-15 06:37:00,68.1,66.0,29.96,North,360,0.0,0.0,93,0.00,,,0.00,Wunderground v.1.15,2013-06-15 11:37:00,
2013-06-15 06:42:00,68.5,66.1,29.96,North,360,0.0,0.0,92,0.00,,,0.00,Wunderground v.1.15,2013-06-15 11:42:00,
2013-06-15 06:47:00,68.8,66.4,29.96,North,360,0.0,0.0,92,0.00,,,0.00,Wunderground v.1.15,2013-06-15 11:47:00,
2013-06-15 06:52:00,69.2,66.5,29.96,North,360,0.0,0.0,91,0.00,,,0.00,Wunderground v.1.15,2013-06-15 11:52:00,
2013-06-15 07:02:00,69.8,66.4,29.96,North,360,0.0,0.0,89,0.00,,,0.00,Wunderground v.1.15,2013-06-15 12:02:00,
2013-06-15 07:07:00,70.3,66.9,29.96,North,360,0.0,0.0,89,0.00,,,0.00,Wunderground v.1.15,2013-06-15 12:07:00,
2013-06-15 07:12:00,70.7,67.0,29.96,North,360,0.0,0.0,88,0.00,,,0.00,Wunderground v.1.15,2013-06-15 12:12:00,
2013-06-15 07:17:00,71.2,66.8,29.97,North,5,1.0,1.0,86,0.00,,,0.00,Wunderground v.1.15,2013-06-15 12:17:00,
2013-06-15 07:23:00,71.7,67.3,29.97,North,9,1.0,1.0,86,0.00,,,0.00,Wunderground v.1.15,2013-06-15 12:23:00,
2013-06-15 07:33:00,72.5,67.4,29.97,NNE,15,0.0,0.0,84,0.00,,,0.00,Wunderground v.1.15,2013-06-15 12:33:00,
2013-06-15 07:38:00,72.8,67.3,29.97,North,360,0.0,0.0,83,0.00,,,0.00,Wunderground v.1.15,2013-06-15 12:38:00,
2013-06-15 07:43:00,73.3,67.1,29.97,North,360,1.0,1.0,81,0.00,,,0.00,Wunderground v.1.15,2013-06-15 12:43:00,
2013-06-15 07:53:00,74.6,67.7,29.97,NNE,19,0.0,0.0,79,0.00,,,0.00,Wunderground v.1.15,2013-06-15 12:53:00,
2013-06-15 08:03:00,75.8,68.1,29.98,East,88,0.0,0.0,77,0.00,,,0.00,Wunderground v.1.15,2013-06-15 13:03:00,
2013-06-15 08:12:00,76.9,68.8,29.98,NNE,33,0.0,0.0,76,0.00,,,0.00,Wunderground v.1.15,2013-06-15 13:12:00,
2013-06-15 08:17:00,77.5,68.6,29.98,ENE,67,0.0,0.0,74,0.00,,,0.00,Wunderground v.1.15,2013-06-15 13:17:00,
2013-06-15 08:23:00,78.0,69.0,29.99,NNE,28,0.0,0.0,74,0.00,,,0.00,Wunderground v.1.15,2013-06-15 13:23:00,
2013-06-15 08:28:00,78.7,69.7,29.99,NNW,348,0.0,0.0,74,0.00,,,0.00,Wunderground v.1.15,2013-06-15 13:28:00,
2013-06-15 08:33:00,79.2,69.0,29.99,SE,130,0.0,0.0,71,0.00,,,0.00,Wunderground v.1.15,2013-06-15 13:33:00,
2013-06-15 08:38:00,79.5,69.3,29.99,ESE,119,0.0,0.0,71,0.00,,,0.00,Wunderground v.1.15,2013-06-15 13:38:00,
2013-06-15 08:48:00,80.1,69.8,29.99,East,91,0.0,0.0,71,0.00,,,0.00,Wunderground v.1.15,2013-06-15 13:48:00,
2013-06-15 08:53:00,80.4,69.7,29.99,East,88,0.0,0.0,70,0.00,,,0.00,Wunderground v.1.15,2013-06-15 13:53:00,
2013-06-15 08:58:00,80.6,70.3,29.99,ENE,78,0.0,0.0,71,0.00,,,0.00,Wunderground v.1.15,2013-06-15 13:58:00,
2013-06-15 09:03:00,80.6,69.9,29.99,ENE,77,0.0,0.0,70,0.00,,,0.00,Wunderground v.1.15,2013-06-15 14:03:00,
2013-06-15 09:13:00,81.4,70.7,30.00,ENE,78,0.0,0.0,70,0.00,,,0.00,Wunderground v.1.15,2013-06-15 14:13:00,
2013-06-15 09:18:00,82.2,71.4,29.99,NE,55,0.0,0.0,70,0.00,,,0.00,Wunderground v.1.15,2013-06-15 14:18:00,
2013-06-15 09:23:00,82.9,71.3,29.99,ENE,72,0.0,0.0,68,0.00,,,0.00,Wunderground v.1.15,2013-06-15 14:23:00,
2013-06-15 09:28:00,83.3,71.6,29.99,ESE,103,0.0,0.0,68,0.00,,,0.00,Wunderground v.1.15,2013-06-15 14:28:00,
2013-06-15 09:33:00,83.4,72.2,29.99,ESE,103,0.0,0.0,69,0.00,,,0.00,Wunderground v.1.15,2013-06-15 14:33:00,
2013-06-15 09:42:00,83.6,71.5,30.00,ENE,78,0.0,0.0,67,0.00,,,0.00,Wunderground v.1.15,2013-06-15 14:42:00,
2013-06-15 09:47:00,84.0,72.7,30.00,ENE,66,0.0,0.0,69,0.00,,,0.00,Wunderground v.1.15,2013-06-15 14:47:00,
2013-06-15 09:52:00,84.8,73.1,30.00,NE,41,0.0,0.0,68,0.00,,,0.00,Wunderground v.1.15,2013-06-15 14:52:00,
2013-06-15 09:57:00,85.1,71.5,29.99,NNE,13,0.0,0.0,64,0.00,,,0.00,Wunderground v.1.15,2013-06-15 14:57:00,
2013-06-15 10:02:00,85.5,71.9,30.00,ENE,61,0.0,0.0,64,0.00,,,0.00,Wunderground v.1.15,2013-06-15 15:02:00,
2013-06-15 10:07:00,86.2,72.6,29.99,NNW,327,0.0,0.0,64,0.00,,,0.00,Wunderground v.1.15,2013-06-15 15:07:00,
2013-06-15 10:12:00,86.3,73.1,30.00,North,11,0.0,0.0,65,0.00,,,0.00,Wunderground v.1.15,2013-06-15 15:12:00,
2013-06-15 10:22:00,87.5,72.4,29.99,NW,325,0.0,0.0,61,0.00,,,0.00,Wunderground v.1.15,2013-06-15 15:22:00,
2013-06-15 10:27:00,88.1,72.5,30.00,ESE,122,0.0,0.0,60,0.00,,,0.00,Wunderground v.1.15,2013-06-15 15:27:00,
2013-06-15 10:32:00,88.4,72.7,30.00,East,80,0.0,0.0,60,0.00,,,0.00,Wunderground v.1.15,2013-06-15 15:32:00,
2013-06-15 10:37:00,88.3,72.7,30.00,SW,225,0.0,0.0,60,0.00,,,0.00,Wunderground v.1.15,2013-06-15 15:37:00,
2013-06-15 10:47:00,88.4,72.7,30.00,SSE,157,0.0,0.0,60,0.00,,,0.00,Wunderground v.1.15,2013-06-15 15:47:00,
2013-06-15 10:52:00,88.6,72.9,30.00,NNE,14,0.0,0.0,60,0.00,,,0.00,Wunderground v.1.15,2013-06-15 15:52:00,
2013-06-15 10:57:00,89.0,72.8,30.00,WSW,250,0.0,0.0,59,0.00,,,0.00,Wunderground v.1.15,2013-06-15 15:57:00,
2013-06-15 11:02:00,89.4,73.2,30.00,East,94,0.0,0.0,59,0.00,,,0.00,Wunderground v.1.15,2013-06-15 16:02:00,
2013-06-15 11:07:00,89.8,73.0,30.00,SE,144,0.0,0.0,58,0.00,,,0.00,Wunderground v.1.15,2013-06-15 16:07:00,
2013-06-15 11:17:00,88.9,73.7,29.99,ESE,103,0.0,0.0,61,0.00,,,0.00,Wunderground v.1.15,2013-06-15 16:17:00,
2013-06-15 11:22:00,88.8,72.6,29.99,SSE,162,1.0,1.0,59,0.00,,,0.00,Wunderground v.1.15,2013-06-15 16:22:00,
2013-06-15 11:27:00,89.4,72.7,29.99,SSE,155,0.0,1.0,58,0.00,,,0.00,Wunderground v.1.15,2013-06-15 16:27:00,
2013-06-15 11:32:00,90.2,75.4,29.99,SSW,192,0.0,0.0,62,0.00,,,0.00,Wunderground v.1.15,2013-06-15 16:32:00,
2013-06-15 11:37:00,90.8,74.5,29.99,SSW,194,0.0,0.0,59,0.00,,,0.00,Wunderground v.1.15,2013-06-15 16:37:00,
2013-06-15 11:42:00,90.2,73.9,29.99,East,96,0.0,0.0,59,0.00,,,0.00,Wunderground v.1.15,2013-06-15 16:42:00,
2013-06-15 11:52:00,89.3,72.1,29.99,NNE,30,0.0,0.0,57,0.00,,,0.00,Wunderground v.1.15,2013-06-15 16:52:00,
2013-06-15 11:57:00,90.1,73.8,29.99,East,86,0.0,0.0,59,0.00,,,0.00,Wunderground v.1.15,2013-06-15 16:57:00,
2013-06-15 12:02:00,90.3,72.5,29.99,East,94,0.0,0.0,56,0.00,,,0.00,Wunderground v.1.15,2013-06-15 17:02:00,
2013-06-15 12:07:00,90.8,72.4,29.99,East,96,0.0,0.0,55,0.00,,,0.00,Wunderground v.1.15,2013-06-15 17:07:00,
2013-06-15 12:12:00,91.2,74.4,29.99,WSW,241,0.0,0.0,58,0.00,,,0.00,Wunderground v.1.15,2013-06-15 17:12:00,
2013-06-15 12:23:00,91.4,73.5,29.99,SW,229,0.0,0.0,56,0.00,,,0.00,Wunderground v.1.15,2013-06-15 17:23:00,
2013-06-15 12:28:00,90.5,73.7,29.99,SW,229,0.0,0.0,58,0.00,,,0.00,Wunderground v.1.15,2013-06-15 17:28:00,
2013-06-15 12:33:00,89.7,71.9,29.99,SW,219,0.0,0.0,56,0.00,,,0.00,Wunderground v.1.15,2013-06-15 17:33:00,
2013-06-15 12:38:00,89.8,70.9,29.98,SW,223,0.0,0.0,54,0.00,,,0.00,Wunderground v.1.15,2013-06-15 17:38:00,
2013-06-15 12:43:00,89.8,74.1,29.98,SW,222,0.0,0.0,60,0.00,,,0.00,Wunderground v.1.15,2013-06-15 17:43:00,
2013-06-15 12:52:00,91.0,72.0,29.98,NW,315,0.0,0.0,54,0.00,,,0.00,Wunderground v.1.15,2013-06-15 17:52:00,
2013-06-15 12:57:00,92.2,74.2,29.98,NW,315,0.0,0.0,56,0.00,,,0.00,Wunderground v.1.15,2013-06-15 17:57:00,
2013-06-15 13:02:00,93.0,73.9,29.98,SSW,194,0.0,0.0,54,0.00,,,0.00,Wunderground v.1.15,2013-06-15 18:02:00,
2013-06-15 13:12:00,93.4,73.1,29.98,SSW,202,0.0,0.0,52,0.00,,,0.00,Wunderground v.1.15,2013-06-15 18:12:00,
2013-06-15 13:17:00,93.3,73.0,29.98,SSW,194,0.0,0.0,52,0.00,,,0.00,Wunderground v.1.15,2013-06-15 18:17:00,
2013-06-15 13:22:00,92.9,73.8,29.98,WSW,248,0.0,0.0,54,0.00,,,0.00,Wunderground v.1.15,2013-06-15 18:22:00,
2013-06-15 13:27:00,93.0,71.6,29.97,SSW,213,0.0,0.0,50,0.00,,,0.00,Wunderground v.1.15,2013-06-15 18:27:00,
2013-06-15 13:32:00,92.2,73.2,29.97,ESE,110,0.0,0.0,54,0.00,,,0.00,Wunderground v.1.15,2013-06-15 18:32:00,
2013-06-15 13:37:00,91.0,73.7,29.97,ESE,110,0.0,0.0,57,0.00,,,0.00,Wunderground v.1.15,2013-06-15 18:37:00,
2013-06-15 13:42:00,89.9,74.6,29.97,ESE,111,0.0,0.0,61,0.00,,,0.00,Wunderground v.1.15,2013-06-15 18:42:00,
2013-06-15 13:47:00,88.9,75.1,29.97,ESE,111,0.0,0.0,64,0.00,,,0.00,Wunderground v.1.15,2013-06-15 18:47:00,
2013-06-15 13:57:00,88.2,73.5,29.97,ESE,106,0.0,0.0,62,0.00,,,0.00,Wunderground v.1.15,2013-06-15 18:57:00,
2013-06-15 14:02:00,88.1,74.4,29.97,ESE,118,0.0,0.0,64,0.00,,,0.00,Wunderground v.1.15,2013-06-15 19:02:00,
2013-06-15 14:08:00,88.4,73.7,29.97,ESE,121,0.0,0.0,62,0.00,,,0.00,Wunderground v.1.15,2013-06-15 19:08:00,
2013-06-15 14:13:00,89.2,75.4,29.97,ESE,121,0.0,0.0,64,0.00,,,0.00,Wunderground v.1.15,2013-06-15 19:13:00,
2013-06-15 14:18:00,89.9,74.6,29.97,SW,215,0.0,0.0,61,0.00,,,0.00,Wunderground v.1.15,2013-06-15 19:18:00,
2013-06-15 14:23:00,89.6,74.9,29.97,East,101,0.0,0.0,62,0.00,,,0.00,Wunderground v.1.15,2013-06-15 19:23:00,
2013-06-15 14:28:00,88.8,74.6,29.97,SSE,163,0.0,0.0,63,0.00,,,0.00,Wunderground v.1.15,2013-06-15 19:28:00,
2013-06-15 14:33:00,88.5,74.3,29.97,SSE,167,0.0,0.0,63,0.00,,,0.00,Wunderground v.1.15,2013-06-15 19:33:00,
2013-06-15 14:38:00,89.3,76.0,29.97,South,172,0.0,0.0,65,0.00,,,0.00,Wunderground v.1.15,2013-06-15 19:38:00,
2013-06-15 14:48:00,90.5,75.2,29.97,South,180,0.0,0.0,61,0.00,,,0.00,Wunderground v.1.15,2013-06-15 19:48:00,
2013-06-15 14:58:00,90.8,75.0,29.97,SSW,198,0.0,0.0,60,0.00,,,0.00,Wunderground v.1.15,2013-06-15 19:58:00,
2013-06-15 15:03:00,90.9,75.1,29.97,South,187,0.0,0.0,60,0.00,,,0.00,Wunderground v.1.15,2013-06-15 20:03:00,
2013-06-15 15:08:00,90.2,75.9,29.97,South,180,0.0,0.0,63,0.00,,,0.00,Wunderground v.1.15,2013-06-15 20:08:00,
2013-06-15 15:17:00,89.8,75.0,29.96,South,189,0.0,0.0,62,0.00,,,0.00,Wunderground v.1.15,2013-06-15 20:17:00,
2013-06-15 15:23:00,90.4,76.6,29.96,SSW,196,0.0,0.0,64,0.00,,,0.00,Wunderground v.1.15,2013-06-15 20:23:00,
2013-06-15 15:33:00,90.8,75.0,29.96,SSW,202,0.0,0.0,60,0.00,,,0.00,Wunderground v.1.15,2013-06-15 20:33:00,
2013-06-15 15:38:00,90.6,75.8,29.96,SSW,202,0.0,0.0,62,0.00,,,0.00,Wunderground v.1.15,2013-06-15 20:38:00,
2013-06-15 15:43:00,90.6,74.8,29.96,South,175,0.0,0.0,60,0.00,,,0.00,Wunderground v.1.15,2013-06-15 20:43:00,
2013-06-15 15:48:00,90.5,74.7,29.96,SSW,192,0.0,0.0,60,0.00,,,0.00,Wunderground v.1.15,2013-06-15 20:48:00,
2013-06-15 15:53:00,90.1,74.3,29.96,SW,226,0.0,0.0,60,0.00,,,0.00,Wunderground v.1.15,2013-06-15 20:53:00,
2013-06-15 15:58:00,90.5,75.2,29.96,SW,235,0.0,0.0,61,0.00,,,0.00,Wunderground v.1.15,2013-06-15 20:58:00,
2013-06-15 16:07:00,89.9,74.2,29.95,SW,231,0.0,0.0,60,0.00,,,0.00,Wunderground v.1.15,2013-06-15 21:07:00,
2013-06-15 16:12:00,89.4,74.7,29.95,SW,231,0.0,0.0,62,0.00,,,0.00,Wunderground v.1.15,2013-06-15 21:12:00,
2013-06-15 16:17:00,89.1,73.4,29.95,SW,232,0.0,0.0,60,0.00,,,0.00,Wunderground v.1.15,2013-06-15 21:17:00,
2013-06-15 16:23:00,89.2,75.9,29.95,SW,232,0.0,0.0,65,0.00,,,0.00,Wunderground v.1.15,2013-06-15 21:23:00,
2013-06-15 16:32:00,89.4,75.6,29.95,SE,142,0.0,0.0,64,0.00,,,0.00,Wunderground v.1.15,2013-06-15 21:32:00,
2013-06-15 16:38:00,89.1,74.4,29.95,SE,142,0.0,0.0,62,0.00,,,0.00,Wunderground v.1.15,2013-06-15 21:38:00,
2013-06-15 16:43:00,89.0,74.3,29.95,South,188,0.0,1.0,62,0.00,,,0.00,Wunderground v.1.15,2013-06-15 21:43:00,
2013-06-15 16:48:00,88.7,75.4,29.94,South,188,0.0,1.0,65,0.00,,,0.00,Wunderground v.1.15,2013-06-15 21:48:00,
2013-06-15 16:53:00,88.6,74.4,29.94,SW,216,0.0,0.0,63,0.00,,,0.00,Wunderground v.1.15,2013-06-15 21:53:00,
2013-06-15 17:02:00,88.6,74.4,29.94,SW,222,0.0,0.0,63,0.00,,,0.00,Wunderground v.1.15,2013-06-15 22:02:00,
2013-06-15 17:07:00,88.4,74.7,29.95,South,182,0.0,0.0,64,0.00,,,0.00,Wunderground v.1.15,2013-06-15 22:07:00,
2013-06-15 17:12:00,88.4,74.2,29.94,South,182,0.0,0.0,63,0.00,,,0.00,Wunderground v.1.15,2013-06-15 22:12:00,
2013-06-15 17:17:00,88.2,74.0,29.94,South,178,0.0,0.0,63,0.00,,,0.00,Wunderground v.1.15,2013-06-15 22:17:00,
2013-06-15 17:23:00,88.0,74.8,29.94,South,176,0.0,0.0,65,0.00,,,0.00,Wunderground v.1.15,2013-06-15 22:23:00,
2013-06-15 17:28:00,87.9,73.7,29.94,ESE,117,0.0,1.0,63,0.00,,,0.00,Wunderground v.1.15,2013-06-15 22:28:00,
2013-06-15 17:33:00,87.9,74.2,29.94,SSE,153,0.0,0.0,64,0.00,,,0.00,Wunderground v.1.15,2013-06-15 22:33:00,
2013-06-15 17:43:00,87.5,74.3,29.93,SSE,163,0.0,0.0,65,0.00,,,0.00,Wunderground v.1.15,2013-06-15 22:43:00,
2013-06-15 17:48:00,87.3,74.1,29.93,SSE,163,0.0,0.0,65,0.00,,,0.00,Wunderground v.1.15,2013-06-15 22:48:00,
2013-06-15 17:53:00,87.1,74.8,29.94,SW,229,0.0,0.0,67,0.00,,,0.00,Wunderground v.1.15,2013-06-15 22:53:00,
2013-06-15 17:58:00,86.9,74.2,29.94,SW,229,0.0,0.0,66,0.00,,,0.00,Wunderground v.1.15,2013-06-15 22:58:00,
2013-06-15 18:03:00,86.8,75.0,29.94,East,82,0.0,0.0,68,0.00,,,0.00,Wunderground v.1.15,2013-06-15 23:03:00,
2013-06-15 18:12:00,86.5,75.5,29.94,SW,222,0.0,4.0,70,0.00,,,0.00,Wunderground v.1.15,2013-06-15 23:12:00,
2013-06-15 18:17:00,86.3,74.5,29.94,SW,232,0.0,4.0,68,0.00,,,0.00,Wunderground v.1.15,2013-06-15 23:17:00,
2013-06-15 18:23:00,86.1,74.7,29.94,SW,232,0.0,0.0,69,0.00,,,0.00,Wunderground v.1.15,2013-06-15 23:23:00,
2013-06-15 18:28:00,85.9,74.5,29.94,SE,140,0.0,0.0,69,0.00,,,0.00,Wunderground v.1.15,2013-06-15 23:28:00,
2013-06-15 18:33:00,85.8,74.9,29.94,ENE,63,0.0,0.0,70,0.00,,,0.00,Wunderground v.1.15,2013-06-15 23:33:00,
2013-06-15 18:38:00,85.7,75.2,29.94,South,176,0.0,0.0,71,0.00,,,0.00,Wunderground v.1.15,2013-06-15 23:38:00,
2013-06-15 18:48:00,85.3,74.8,29.94,South,176,0.0,0.0,71,0.00,,,0.00,Wunderground v.1.15,2013-06-15 23:48:00,
2013-06-15 18:53:00,85.1,74.6,29.94,South,176,0.0,0.0,71,0.00,,,0.00,Wunderground v.1.15,2013-06-15 23:53:00,
2013-06-15 18:58:00,85.0,74.5,29.94,South,177,0.0,0.0,71,0.00,,,0.00,Wunderground v.1.15,2013-06-15 23:58:00,
2013-06-15 19:03:00,84.8,74.3,29.94,SW,221,0.0,0.0,71,0.00,,,0.00,Wunderground v.1.15,2013-06-16 00:03:00,
2013-06-15 19:12:00,84.4,74.8,29.94,SW,221,0.0,0.0,73,0.00,,,0.00,Wunderground v.1.15,2013-06-16 00:12:00,
2013-06-15 19:18:00,84.1,74.5,29.94,SW,221,0.0,0.0,73,0.00,,,0.00,Wunderground v.1.15,2013-06-16 00:18:00,
2013-06-15 19:23:00,83.8,74.6,29.95,SW,221,0.0,0.0,74,0.00,,,0.00,Wunderground v.1.15,2013-06-16 00:23:00,
2013-06-15 19:28:00,83.4,74.2,29.95,SW,221,0.0,0.0,74,0.00,,,0.00,Wunderground v.1.15,2013-06-16 00:28:00,
2013-06-15 19:33:00,83.1,74.4,29.95,SW,221,0.0,0.0,75,0.00,,,0.00,Wunderground v.1.15,2013-06-16 00:33:00,
2013-06-15 19:38:00,82.9,74.6,29.95,SW,221,0.0,0.0,76,0.00,,,0.00,Wunderground v.1.15,2013-06-16 00:38:00,
2013-06-15 19:47:00,82.4,74.5,29.95,SW,221,0.0,0.0,77,0.00,,,0.00,Wunderground v.1.15,2013-06-16 00:47:00,
2013-06-15 19:52:00,82.1,74.2,29.95,SW,221,0.0,0.0,77,0.00,,,0.00,Wunderground v.1.15,2013-06-16 00:52:00,
2013-06-15 19:57:00,81.8,74.3,29.95,SW,221,0.0,0.0,78,0.00,,,0.00,Wunderground v.1.15,2013-06-16 00:57:00,
2013-06-15 20:02:00,81.5,74.4,29.95,SW,221,0.0,0.0,79,0.00,,,0.00,Wunderground v.1.15,2013-06-16 01:02:00,
2013-06-15 20:08:00,81.3,74.2,29.95,SW,221,0.0,0.0,79,0.00,,,0.00,Wunderground v.1.15,2013-06-16 01:08:00,
2013-06-15 20:13:00,81.1,74.3,29.95,SW,221,0.0,0.0,80,0.00,,,0.00,Wunderground v.1.15,2013-06-16 01:13:00,
2013-06-15 20:18:00,80.9,74.1,29.95,SW,221,0.0,0.0,80,0.00,,,0.00,Wunderground v.1.15,2013-06-16 01:18:00,
2013-06-15 20:23:00,80.6,74.2,29.95,SW,221,0.0,0.0,81,0.00,,,0.00,Wunderground v.1.15,2013-06-16 01:23:00,
2013-06-15 20:28:00,80.4,74.0,29.96,SW,221,0.0,0.0,81,0.00,,,0.00,Wunderground v.1.15,2013-06-16 01:28:00,
2013-06-15 20:33:00,80.1,74.1,29.96,SW,221,0.0,0.0,82,0.00,,,0.00,Wunderground v.1.15,2013-06-16 01:33:00,
2013-06-15 20:38:00,79.9,74.3,29.95,SW,221,0.0,0.0,83,0.00,,,0.00,Wunderground v.1.15,2013-06-16 01:38:00,
2013-06-15 20:43:00,79.7,74.1,29.96,SW,221,0.0,0.0,83,0.00,,,0.00,Wunderground v.1.15,2013-06-16 01:43:00,
2013-06-15 20:48:00,79.6,74.3,29.96,SW,221,0.0,0.0,84,0.00,,,0.00,Wunderground v.1.15,2013-06-16 01:48:00,
2013-06-15 20:58:00,79.5,74.2,29.96,SW,221,0.0,0.0,84,0.00,,,0.00,Wunderground v.1.15,2013-06-16 01:58:00,
2013-06-15 21:03:00,79.4,74.5,29.97,SW,221,0.0,0.0,85,0.00,,,0.00,Wunderground v.1.15,2013-06-16 02:03:00,
2013-06-15 21:12:00,79.2,74.3,29.97,SW,221,0.0,0.0,85,0.00,,,0.00,Wunderground v.1.15,2013-06-16 02:12:00,
2013-06-15 21:17:00,78.7,74.2,29.97,SW,221,0.0,0.0,86,0.00,,,0.00,Wunderground v.1.15,2013-06-16 02:17:00,
2013-06-15 21:22:00,78.2,74.0,29.97,SW,221,0.0,0.0,87,0.00,,,0.00,Wunderground v.1.15,2013-06-16 02:22:00,
2013-06-15 21:28:00,78.0,74.2,29.97,SW,221,0.0,0.0,88,0.00,,,0.00,Wunderground v.1.15,2013-06-16 02:28:00,
2013-06-15 21:33:00,77.6,74.1,29.98,SW,219,0.0,0.0,89,0.00,,,0.00,Wunderground v.1.15,2013-06-16 02:33:00,
2013-06-15 21:38:00,77.2,73.7,29.98,SW,221,0.0,0.0,89,0.00,,,0.00,Wunderground v.1.15,2013-06-16 02:38:00,
2013-06-15 21:43:00,77.0,73.8,29.98,SW,221,0.0,0.0,90,0.00,,,0.00,Wunderground v.1.15,2013-06-16 02:43:00,
2013-06-15 21:52:00,76.7,73.9,29.99,SW,221,0.0,0.0,91,0.00,,,0.00,Wunderground v.1.15,2013-06-16 02:52:00,
2013-06-15 21:58:00,76.5,73.7,29.99,SW,221,0.0,0.0,91,0.00,,,0.00,Wunderground v.1.15,2013-06-16 02:58:00,
2013-06-15 22:03:00,76.2,73.4,29.99,SW,221,0.0,0.0,91,0.00,,,0.00,Wunderground v.1.15,2013-06-16 03:03:00,
2013-06-15 22:12:00,76.0,73.5,30.00,SW,221,0.0,0.0,92,0.00,,,0.00,Wunderground v.1.15,2013-06-16 03:12:00,
2013-06-15 22:17:00,75.9,73.7,30.00,SW,221,0.0,0.0,93,0.00,,,0.00,Wunderground v.1.15,2013-06-16 03:17:00,
2013-06-15 22:22:00,75.8,73.6,30.00,SW,221,0.0,0.0,93,0.00,,,0.00,Wunderground v.1.15,2013-06-16 03:22:00,
2013-06-15 22:27:00,75.6,73.4,30.00,SW,221,0.0,0.0,93,0.00,,,0.00,Wunderground v.1.15,2013-06-16 03:27:00,
2013-06-15 22:37:00,75.4,73.2,30.00,SW,221,0.0,0.0,93,0.00,,,0.00,Wunderground v.1.15,2013-06-16 03:37:00,
2013-06-15 22:42:00,75.2,73.4,30.00,SW,221,0.0,0.0,94,0.00,,,0.00,Wunderground v.1.15,2013-06-16 03:42:00,
2013-06-15 22:47:00,75.1,73.3,30.00,SW,221,0.0,0.0,94,0.00,,,0.00,Wunderground v.1.15,2013-06-16 03:47:00,
2013-06-15 22:52:00,75.0,73.2,30.00,SW,221,0.0,0.0,94,0.00,,,0.00,Wunderground v.1.15,2013-06-16 03:52:00,
2013-06-15 22:57:00,74.8,73.0,30.00,SW,221,0.0,0.0,94,0.00,,,0.00,Wunderground v.1.15,2013-06-16 03:57:00,
2013-06-15 23:03:00,74.6,72.8,30.00,SW,221,0.0,0.0,94,0.00,,,0.00,Wunderground v.1.15,2013-06-16 04:03:00,
2013-06-15 23:12:00,74.5,73.0,30.00,SW,221,0.0,0.0,95,0.00,,,0.00,Wunderground v.1.15,2013-06-16 04:12:00,
2013-06-15 23:17:00,74.2,72.4,30.00,SW,221,0.0,0.0,94,0.00,,,0.00,Wunderground v.1.15,2013-06-16 04:17:00,
2013-06-15 23:23:00,73.9,72.1,30.00,SW,221,0.0,0.0,94,0.00,,,0.00,Wunderground v.1.15,2013-06-16 04:23:00,
2013-06-15 23:28:00,73.9,72.4,30.00,SW,221,0.0,0.0,95,0.00,,,0.00,Wunderground v.1.15,2013-06-16 04:28:00,
2013-06-15 23:32:00,73.8,72.3,30.00,SW,221,0.0,0.0,95,0.00,,,0.00,Wunderground v.1.15,2013-06-16 04:32:00,
2013-06-15 23:38:00,73.8,72.3,30.00,SW,221,0.0,0.0,95,0.00,,,0.00,Wunderground v.1.15,2013-06-16 04:38:00,
2013-06-15 23:43:00,73.7,72.2,30.00,SW,221,0.0,0.0,95,0.00,,,0.00,Wunderground v.1.15,2013-06-16 04:43:00,
2013-06-15 23:48:00,73.7,72.2,30.00,SW,221,0.0,0.0,95,0.00,,,0.00,Wunderground v.1.15,2013-06-16 04:48:00,
2013-06-15 23:53:00,73.5,72.0,30.00,SW,221,0.0,0.0,95,0.00,,,0.00,Wunderground v.1.15,2013-06-16 04:53:00,